Tracking 33200 objects as of 17-Feb-2026
HD Live streaming from Space Station
objects crossing your sky now

STARLINK-32652

Track STARLINK-32652 now!
10-day predictions
STARLINK-32652 is classified as:


NORAD ID: 62234
Int'l Code: 2024-231S
Perigee: 481.5 km
Apogee: 482.8 km
Inclination: 53.2 °
Period: 94.1 minutes
Semi major axis: 6853 km
RCS: Unknown
Launch date: December 5, 2024
Source: United States (US)
Launch site: AIR FORCE WESTERN TEST RANGE (AFWTR)
Your satellite tracking list
Your tracking list is empty




NASA's NSSDC Master Catalog

Two Line Element Set (TLE):
1 62234U 24231S   26048.14970686  .00041068  00000-0  13882-2 0  9993
2 62234  53.1588 315.0337 0000932  91.1510 268.9598 15.30267548 68611
Source of the keplerian elements: AFSPC